Location: Asheville, NC
(35.6000°N, 82.5500°W)
Time: 06:25:55
(UTC-04:00)

STARS - Visible Passes

Search period start: 22 July 2018 00:00
Search period end: 01 August 2018 00:00
Orbit: 625 x 641 km, 98.3° (Epoch: 21 July)

Date Brightness Start Highest point End Pass type
(mag) Time Alt. Az. Time Alt. Az. Time Alt. Az.
22 Jul ? 21:41:50 10° WNW 21:42:18 10° WNW 21:42:46 10° WNW visible
25 Jul ? 21:06:38 10° NNW 21:10:04 23° WNW 21:13:30 10° WSW visible
26 Jul ? 21:28:51 10° NW 21:31:06 14° WNW 21:33:22 10° W visible
30 Jul ? 21:16:50 10° NNW 21:19:52 19° WNW 21:22:55 10° WSW visible
31 Jul ? 21:39:37 10° NW 21:40:53 11° WNW 21:42:09 10° W visible
